Preview of NWS' New Version of Forecast
This preview is not operational and should not be used for support decisions.

Regional Weather Roundup (RWR)

Issued by Memphis, TN (MEG)

                            
751 
ASUS44 KMEG 212310
RWRMEG
MEMPHIS CWA HOURLY WEATHER ROUNDUP
NATIONAL WEATHER SERVICE MEMPHIS TN
600 PM CDT THU JUN 21 2018

...WEST TENNESSEE...
  
CITY           SKY/WX    TMP DP  RH WIND       PRES   REMARKS
MEMPHIS INTL   PTSUNNY   83  69  62 CALM      29.73S                  
NWS MEMPHIS      N/A     72 N/A N/A MISG        N/A                   
JACKSON        TSTM      69  69 100 W32G47    29.80R VSB 1/4          
COVINGTON      PTSUNNY   73  68  83 SW9       29.75R                  
BOLIVAR        CLOUDY    82  72  69 SW9       29.76S                  
LEXINGTON      SUNNY     82  72  69 SW6       29.74F                  
SELMER         MOSUNNY   84  72  65 VRB7G13   29.74F                  
DYERSBURG      FAIR      75  71  87 S6        29.74F                  
PARIS          PTSUNNY   79  73  83 SW6       29.74S                  
HUNTINGDON     PTSUNNY   79  73  83 CALM      29.74S                  


...EASTERN ARKANSAS...
  
CITY           SKY/WX    TMP DP  RH WIND       PRES   REMARKS
JONESBORO      NOT AVBL                                               
WEST MEMPHIS   PTSUNNY   83  72  69 N10G17    29.73R                  
BATESVILLE     SUNNY     88  60  38 W9        29.74S                  
NEWPORT        FAIR      90  67  46 W15       29.72F HX  93           
WALNUT RIDGE     N/A     86  64  47 NW15      29.72F                  
BLYTHEVILLE    FAIR      79  71  76 SW9       29.73F                  
SEARCY         FAIR      91  65  41 W7        29.74F HX  93           
STUTTGART        N/A     88  75  65 SW14      29.75F HX  97           
PINE BLUFF     FAIR      89  69  51 SW15G23   29.76F HX  93           
MONTICELLO     FAIR      89  74  60 SW9G18    29.79F HX  98           


...NORTH MISSISSIPPI...
  
CITY           SKY/WX    TMP DP  RH WIND       PRES   REMARKS
TUPELO         FAIR      87  72  60 S8        29.77F HX  93           
OXFORD         FAIR      86  72  62 SW13G20   29.79F HX  92           
BATESVILLE     FAIR      88  73  62 SW13G18   29.76F HX  96           
OLIVE BRANCH   PTSUNNY   81  72  74 MISG      29.73F                  
TUNICA           N/A     86  70  58 SW14      29.75F HX  90           
CLARKSDALE     SUNNY     90  77  66 SW9G16    29.76F HX 102           
CORINTH        FAIR      86  70  58 SW10      29.75F HX  90           
GREENWOOD      FAIR      88  75  65 SW10      29.79F HX  97           
COLUMBUS       FAIR      83  72  70 SW7       29.79F                  
STARKVILLE     FAIR      86  73  66 SW6       29.82S HX  93           
GOLDEN TRIANGL FAIR      87  74  64 SW8G17    29.81F HX  95           


...SOUTHEAST MISSOURI...
  
CITY           SKY/WX    TMP DP  RH WIND       PRES   REMARKS
KENNETT        FAIR      82  72  69 SW12      29.71S                  
MALDEN         FAIR      84  68  58 SW14      29.72S                  
WEST PLAINS    CLOUDY    78  59  51 W7        29.79S                  
POPLAR BLUFF   FAIR      85  61  44 W14G21    29.71R                  
CAPE GIRARDEAU FAIR      79  69  71 SW6       29.70F                  


...NORTHWEST ALABAMA...
  
CITY           SKY/WX    TMP DP  RH WIND       PRES   REMARKS
MUSCLE SHOALS  FAIR      84  70  62 W12       29.79F                  


...MIDDLE TENNESSEE...
  
CITY           SKY/WX    TMP DP  RH WIND       PRES   REMARKS
CLARKSVILLE    FAIR      83  67  58 SW8       29.73F                  
DICKSON        PTCLDY    81  70  69 VRB7G17   29.76F                  
COLUMBIA       SUNNY     84  70  61 SW10      29.75F                  
LEWISBURG      PTCLDY    84  72  65 SW8       29.77S                  


...WESTERN KENTUCKY...
  
CITY           SKY/WX    TMP DP  RH WIND       PRES   REMARKS
PADUCAH        FAIR      73  68  84 SW5       29.71F                  
FORT CAMPBELL  DRIZZLE   82  70  65 S9        29.71                   


...CENTRAL ARKANSAS...
  
CITY           SKY/WX    TMP DP  RH WIND       PRES   REMARKS
LITTLE ROCK    MOSUNNY   91  65  41 W18G28    29.75F HX  93           


SKY/WX REPORTED AS FAIR MEANS FEW OR NO CLOUDS BELOW
12 THOUSAND FEET.